SCP
0 0 0 0 0 0 0 0 0 0 0 0 0 0 0 0 0 0 -0 -0 0 0 0 -0 -0 -0 -0 -0 0 0 0 0 -0 -0 -0 -0 -0 -0 -0 -0 -0 -0 -0 -0 -0 -0 -0 0 0
0 0 0 0 0 0 0 0 0 0 0 0 0 0 0 0 0 -0 0 -0 0 0 0 0 -0 -0 -0 -0 -0 0 0 0 0 -0 -0 -0 -0 -0 -0 -0 -0 -0 -0 -0 -0 -0 -0 -0 -0
0 0 0 0 0 0 0 0 0 0 0 0 0 0 0 0 0 -0 -0 -0 0 0 0 0 0 -0 -0 -0 -0 0 0 0 0 0 -0 -0 -0 -0 -0 0 -0 -0 -0 -0 -0 -0 -0 -0 -0
0 0 0 0 0 0 0 0 0 0 0 0 0 0 0 0 -0 -0 0 -0 -0 0 0 0 0 -0 -0 -0 -0 -0 -0 0 0 0 0 0 -0 -0 0 -0 -0 -0 -0 -0 -0 -0 -0 -0 -0
0 0 0 0 0 0 0 0 0 0 0 0 0 0 0 0 0 0 0 0 -0 0 0 0 0 0 -0 -0 -0 -0 -0 -0 0 0 0 0 -0 -0 0 0 0 0 -0 -0 -0 0 0 0 0
0 0 0 0 0 0 0 0 0 0 0 0 0 0 0 0 0 0 0 0 0 0 0 0 0 0 0 0 0 -0 -0 -0 -0 0 -0 0 0 0 0 0 0 0 0 0 0 0 0 0 0
0 0 0 0 0 0 0 0 0 0 0 0 0 0 0 0 0 0 0 0 0 0 0 0 0 0 0 0 0 0 0 0 0 0 0 0 0 0 0 0 0 0 0 0 0 0 0 -0 -0
0 0 0 0 0 0 0 0 0 0 0 0 0 0 0 0 0 0 0 0 0 0 0 0 0 0 -0 0 0 0 0 0 0 0 0 0 0 0 0 0 0 0 0 0 0 -0 -0 -0 -0
0 0 0 0 0 0 0 0 0 0 0 0 0 0 0 0 0 0 0 0 0 0 0 0 0 0 -0 0 0 0 0 0 0 0 0 0 0 0 0 0 0 0 0 0 -0 -0 -0 -0 -0
0 0 0 0 0 0 0 0 0 0 0 0 0 0 0 0 0 0 0 0 0 0 0 -0 -0 0 0 0 0 0 0 0 0 0 0 0 0 0 0 0 0 -0 -0 -0 -0 -0 -0 -0 -0
0 0 0 0 0 0 0 0 0 0 0 0 0 0 0 0 0 0 0 0 0 0 0 0 0 0 0 0 0 0 0 0 0 0 0 0 0 -0 0 0 0 -0 -0 -0 -0 -0 -0 -0 -0
0 0 0 0 0 0 0 0 0 0 0 0 0 0 0 0 0 0 0 0 0 0 0 0 0 0 0 0 0 0 0 0 0 0 0 0 0 0 0 0 0 -0 -0 -0 -0 0 -0 -0 -0
0 0 0 0 0 0 0 0 0 0 0 0 0 0 0 0 0 0 0 0 0 0 0 0 0 0 0 0 0 0 0 0 0 0 0 0 0 0 0 0 0 0 0 0 0 0 0 0 0
0 0 0 0 0 0 0 0 0 0 0 0 0 0 0 0 0 0 0 0 0 0 0 0 0 0 0 0 0 0 0 0 0 0 0 0 0 0 0 0 0 0 0 0 0 0 0 0 0
0 0 0 0 0 0 0 0 0 0 0 0 0 0 0 0 0 0 0 0 0 0 0 0 0 0 0 0 0 0 0 0 0 0 0 0 0 0 0 0 -0 0 0 0 0 0 0 0 0
0 0 0 0 0 0 0 0 0 0 0 0 0 0 0 0 0 0 0 0 0 0 0 0 0 0 0 0 0 0 0 0 0 0 0 0 0 0 0 0 0 0 0 0 0 0 0 0 0
0 0 0 0 0 0 0 0 0 0 0 0 0 0 0 0 0 0 0 0 0 0 0 0 0 0 0 0 0 0 0 0 0 0 0 0 0 0 0 0 0 0 0 0 0 0 0 0 0
0 0 0 0 0 0 0 0 0 0 0 0 0 0 0 0 0 0 0 0 0 0 0 0 0 0 0 0 0 0 0 0 0 0 0 0 0 0 0 0 0 0 0 0 0 0 0 0 0
0 0 0 0 0 0 0 0 0 0 0 0 0 0 0 0 0 0 0 0 0 0 0 0 0 0 0 0 0 0 0 0 0 0 0 0 0 0 0 0 0 0 0 0 0 0 0 0 0
0 0 0 0 0 0 0 0 0 0 0 0 0 0 0 0 0 0 0 0 0 0 0 0 0 0 0 0 0 0 0 0 0 0 0 0 0 0 0 0 0 0 0 0 0 0 0 0 0
0 0 0 0 0 0 0 -0 0 0 0 0 0 0 0 0 0 0 0 0 0 0 0 0 0 0 0 0 0 0 0 0 0 0 0 0 0 0 0 0 0 0 0 0 0 0 0 0 0
0 0 0 0 0 0 0 -0 -0 0 0 0 0 0 0 0 0 0 0 0 0 0 0 0 0 0 0 0 0 0 0 0 0 0 0 0 0 0 0 0 0 0 0 0 0 0 0 0 0
0 0 0 0 0 0 0 0 -0 0 0 0 0 0 0 0 0 0 0 0 0 0 0 0 0 0 0 0 0 0 0 0 0 0 0 0 0 0 0 0 0 0 0 0 0 0 0 0 0
0 0 0 0 0 0 0 0 -0 -0 -0 0 0 0 0 0 0 0 0 0 0 0 0 0 0 0 0 0 0 0 0 0 0 0 0 0 0 0 0 0 0 0 0 0 0 0 0 0 0
0 0 0 0 0 0 -0 0 0 0 0 0 0 0 0 0 0 0 0 0 0 0 0 0 0 0 0 0 0 0 0 0 0 0 0 0 0 0 0 0 0 0 0 0 0 0 0 0 0
0 0 0 0 0 0 0 0 0 0 0 0 0 0 0 0 0 0 0 0 0 0 0 0 0 0 0 0 0 0 0 0 0 0 0 0 0 0 0 0 0 0 0 0 0 0 0 0 0
0 0 0 0 0 0 0 0 0 0 0 0 0 0 0 0 0 0 0 0 0 0 0 0 0 0 0 0 0 0 0 0 0 0 0 0 0 0 0 0 0 0 0 0 0 0 0 0 0
0 0 0 0 0 0 0 0 -0 -0 0 0 0 0 0 0 0 0 0 0 0 0 0 0 0 0 0 0 0 0 0 0 0 0 0 0 0 0 0 0 0 0 0 0 0 0 0 0 0
0 0 0 0 0 0 0 0 0 -0 0 0 0 0 0 0 0 0 0 0 0 0 0 0 0 0 0 0 0 0 0 0 0 0 0 0 0 0 0 0 0 0 0 0 0 0 0 0 0
0 0 0 0 0 0 0 0 0 0 0 0 -0 0 0 0 0 0 0 0 0 0 0 0 0 0 0 0 0 0 0 0 0 0 0 0 0 0 0 0 0 0 0 0 0 0 0 0 0
Wind_Speed_500mb
5 5 4 2 6 6 3 6 3 5 3 2 20 10 8 8 6 2 12 29 47 47 47 46 39 36 35 38 38 39 37 37 35 34 31 27 20 13 6 6 7 20 24 24 26 30 31 30 29
6 3 6 6 7 2 6 4 6 7 3 22 20 18 7 4 6 9 30 31 46 46 49 46 40 37 35 39 40 38 35 31 31 29 24 20 15 8 3 7 10 23 22 23 24 28 29 28 28
5 1 4 7 5 6 5 5 6 7 23 5 6 7 9 7 7 22 20 42 47 47 47 45 40 35 34 36 37 35 31 27 25 23 21 17 13 8 6 12 25 14 21 22 21 22 24 25 25
2 1 9 6 7 8 5 7 7 4 11 3 7 10 10 5 12 19 28 47 45 46 45 44 38 34 34 34 31 32 29 25 23 23 22 20 16 14 14 30 24 18 21 20 18 17 16 19 20
1 3 6 4 7 7 7 10 8 4 6 7 8 6 9 13 16 19 36 45 46 45 46 44 39 33 34 33 29 27 22 20 19 18 20 21 18 16 23 23 20 19 20 18 15 13 12 12 13
3 6 5 6 8 7 11 6 6 6 8 13 10 14 9 14 19 35 42 43 44 43 46 43 39 33 35 33 27 25 19 18 16 15 17 23 20 21 23 18 16 15 15 14 12 9 8 7 8
10 7 7 7 5 7 8 7 4 4 9 9 13 11 10 22 28 37 45 43 44 44 45 42 39 36 35 33 27 23 17 14 12 13 13 17 17 21 17 16 18 17 15 11 9 6 3 4 6
12 9 10 8 7 9 5 3 3 8 6 11 17 8 9 35 39 44 46 46 46 47 44 45 43 41 40 35 28 23 16 11 9 11 14 15 14 14 16 15 16 15 12 8 6 3 1 2 4
15 7 8 11 13 10 5 1 1 3 6 11 16 6 8 40 47 51 52 51 52 51 50 47 45 43 40 36 30 25 19 12 7 10 13 16 16 13 14 14 12 11 9 6 3 3 3 4 6
10 10 19 14 11 7 4 3 4 2 5 10 11 12 11 45 52 59 61 63 61 57 55 51 48 46 42 38 33 29 23 17 10 10 11 16 15 14 14 13 10 6 6 6 5 4 4 5 7
10 12 12 13 18 14 6 5 4 5 5 14 16 21 24 49 54 57 59 59 63 58 54 54 50 47 45 41 37 32 27 20 15 13 13 13 15 14 13 12 10 10 8 7 6 5 6 7 9
6 16 16 15 22 11 7 6 5 11 4 7 10 17 33 51 57 59 58 59 60 60 56 52 50 50 46 42 39 34 29 22 18 12 13 13 11 10 11 11 12 11 11 11 10 10 11 12 14
7 6 20 18 26 31 15 16 10 15 10 14 15 24 33 48 56 57 54 52 54 58 57 53 50 49 47 44 41 37 31 25 20 19 16 16 15 13 13 12 13 12 13 13 13 13 14 15 17
15 16 14 14 25 14 12 12 12 9 16 21 20 27 35 45 54 58 58 55 53 49 55 54 53 48 46 44 41 37 33 26 25 23 18 17 17 17 17 16 17 16 16 16 17 17 18 17 20
12 11 8 16 12 9 17 16 13 46 32 19 16 22 36 47 52 56 54 56 53 49 46 54 52 51 48 45 39 38 35 32 30 27 25 23 21 20 20 19 19 17 18 18 20 20 20 21 23
5 2 8 5 22 11 26 32 29 65 41 48 44 26 33 46 53 52 54 55 52 50 49 47 50 50 48 46 42 37 36 34 32 30 28 26 25 23 23 23 18 18 20 21 21 21 24 25 26
6 6 11 13 18 10 21 9 29 44 53 56 57 47 40 43 51 55 53 53 54 48 45 49 49 47 44 47 44 38 36 35 32 29 27 26 26 24 24 23 19 19 21 22 24 24 28 30 32
6 8 6 7 4 9 18 22 19 18 48 65 69 68 56 52 53 57 56 53 51 53 48 47 49 46 41 41 43 42 40 38 36 32 28 25 24 23 24 23 22 24 27 27 28 31 30 34 38
8 6 10 8 23 12 18 32 34 41 29 43 56 66 67 63 54 52 54 55 53 53 55 53 55 53 49 48 48 47 45 39 37 35 28 28 25 26 29 29 29 28 30 30 30 34 36 36 34
14 21 19 12 17 5 18 29 24 36 33 50 62 70 70 67 64 56 52 57 59 58 58 59 59 58 55 51 45 45 39 37 33 28 31 31 31 31 30 32 34 33 31 31 30 32 38 42 37
17 16 13 18 20 13 13 35 33 19 44 54 68 72 73 75 66 56 50 51 63 64 61 61 63 63 60 53 48 45 43 42 38 35 33 30 24 20 20 21 24 25 29 31 30 33 37 43 44
12 8 4 16 9 14 5 17 22 44 41 34 57 63 79 79 77 74 69 65 66 67 65 60 60 66 64 58 56 54 49 41 39 33 30 29 32 32 32 33 34 34 34 37 36 37 37 39 45
7 4 6 13 15 8 29 13 9 20 34 41 47 59 81 89 89 79 75 72 74 76 73 66 63 63 64 61 59 57 51 46 41 37 34 32 31 31 32 35 33 36 38 39 37 36 35 37 40
7 4 8 3 8 16 28 21 12 12 19 16 43 62 75 87 84 75 65 61 58 63 72 73 69 60 62 61 58 55 54 51 46 39 36 34 31 29 29 29 33 35 40 41 43 43 45 41 37
10 8 3 7 11 28 21 22 45 3 4 9 16 42 68 85 88 81 72 64 53 47 57 66 67 60 58 62 63 60 56 51 44 43 40 37 33 31 31 32 29 27 34 37 39 41 41 42 45
17 16 8 15 10 11 15 23 15 11 35 51 20 16 40 61 72 87 79 65 53 42 37 52 61 62 60 61 59 50 45 42 45 37 30 24 24 24 25 29 30 32 37 40 41 41 43 45 41
8 16 16 13 11 7 9 21 18 2 8 6 3 4 21 31 52 65 71 69 61 53 47 47 55 61 57 52 43 39 25 9 2 7 12 16 19 23 24 26 29 32 38 39 40 41 42 42 43
12 1 7 8 10 10 9 19 19 3 13 8 12 14 12 23 31 46 59 63 60 55 52 49 53 54 46 43 44 19 18 9 14 30 37 44 39 28 19 18 22 21 21 23 23 23 23 24 27
9 8 9 6 15 6 5 10 5 12 10 17 14 16 22 27 35 42 47 49 51 52 50 53 55 62 61 47 39 33 22 20 25 28 36 30 24 17 13 11 12 10 15 17 22 24 25 27 29
11 17 19 13 15 10 25 24 4 6 13 16 0 6 16 28 40 44 45 47 47 50 52 53 54 53 46 43 39 39 41 34 31 30 28 20 11 4 2 6 10 15 18 20 21 24 27 29 30
Wind_Direction_500mb
41 97 137 110 61 58 255 256 279 305 279 185 135 146 167 111 161 200 165 157 163 165 165 164 164 163 158 150 147 141 145 145 150 143 149 140 147 138 132 79 53 109 111 109 103 92 89 86 87
41 97 121 97 88 70 264 242 234 242 173 133 113 119 110 130 139 148 147 157 163 165 166 164 164 167 163 159 159 154 158 158 165 169 166 166 167 169 143 89 113 112 111 106 96 92 89 83 84
20 87 124 95 114 192 219 211 274 273 158 150 122 97 116 129 157 147 151 158 163 168 167 165 164 166 163 162 165 167 167 166 169 174 189 200 197 194 172 95 103 101 114 103 94 88 87 85 80
345 84 69 99 210 253 211 287 330 129 190 48 123 84 108 143 137 145 156 160 163 169 166 167 166 167 165 160 161 163 173 180 189 197 204 211 219 208 183 126 133 119 119 110 103 97 84 77 76
255 91 71 99 247 264 263 278 335 190 180 147 145 171 118 131 149 152 156 160 164 168 166 169 170 171 169 165 161 163 166 172 183 190 194 189 200 163 149 139 135 116 122 116 110 104 96 79 71
134 96 88 215 241 262 276 263 281 231 185 155 139 141 149 152 152 153 158 160 167 169 167 170 174 174 169 168 165 161 153 148 150 161 172 180 187 158 153 155 149 126 126 124 120 108 91 77 61
145 103 206 191 244 289 232 286 216 255 210 196 161 132 173 163 155 159 161 163 169 173 170 169 179 177 174 173 170 165 154 142 129 148 159 164 169 150 147 147 151 145 147 144 141 134 102 61 29
178 111 144 226 193 253 241 315 309 185 186 161 170 179 189 177 161 164 168 169 172 175 178 175 181 181 180 180 179 177 172 166 148 156 163 173 169 165 162 155 152 152 158 166 169 167 229 338 336
170 96 189 213 167 232 208 68 72 205 165 183 189 173 182 175 165 168 172 178 177 180 183 181 183 185 187 187 185 187 188 188 177 164 175 175 173 179 174 169 172 172 173 183 208 239 272 297 307
172 166 205 195 195 227 208 177 322 171 174 208 204 208 188 176 176 177 180 182 184 183 185 188 188 188 192 194 195 197 199 200 192 179 173 175 180 181 183 180 176 188 196 195 211 235 272 298 311
190 204 193 207 211 234 229 237 210 165 225 210 208 216 187 183 187 190 190 189 188 187 189 191 193 193 197 201 202 205 209 209 203 191 178 179 189 187 181 184 188 194 195 204 221 247 273 291 294
202 246 204 196 200 186 211 197 206 214 239 174 238 230 208 194 198 200 200 196 191 193 193 194 196 200 203 207 212 213 215 217 218 208 202 206 204 198 201 201 208 214 223 231 244 258 268 274 278
199 248 230 227 208 209 219 229 231 241 235 260 281 226 215 209 206 206 209 205 201 198 197 196 198 204 207 211 216 219 220 222 221 221 219 223 230 229 229 227 230 233 241 253 265 274 280 283 289
322 290 259 240 232 226 199 239 192 236 244 255 254 236 217 216 214 211 209 211 212 210 205 201 201 204 210 213 216 220 222 225 229 229 230 235 240 245 250 253 255 253 261 271 275 277 283 293 299
309 317 326 220 211 225 208 264 213 240 245 252 248 240 226 215 218 222 219 215 216 216 219 210 207 207 210 217 219 224 228 229 230 235 240 245 248 254 259 257 258 263 266 267 276 286 288 292 296
284 146 241 227 160 217 176 250 220 239 228 236 245 243 237 225 222 224 224 222 220 219 221 213 212 213 214 215 219 224 231 235 239 241 245 251 257 259 263 265 263 261 264 269 277 286 292 297 299
278 224 228 313 206 176 197 240 228 233 222 229 236 238 239 238 231 226 225 224 224 225 225 219 213 215 217 220 221 224 231 237 240 242 245 250 256 258 260 262 259 261 267 272 279 286 293 297 301
254 234 260 230 336 240 231 243 270 240 217 225 230 233 234 235 237 229 222 223 224 228 224 224 221 218 218 221 223 224 227 230 230 233 239 247 253 255 261 264 268 270 274 278 285 291 291 298 305
261 274 294 311 305 303 247 243 249 251 245 231 234 231 226 228 239 237 229 227 224 224 226 220 222 221 216 216 217 223 227 229 231 235 239 243 252 257 259 265 269 269 273 281 283 289 295 297 304
278 268 271 283 264 309 295 265 254 247 235 230 232 232 229 227 229 232 228 227 228 226 224 222 221 223 223 221 222 228 232 235 241 244 245 248 253 256 264 265 266 270 275 278 283 288 294 295 303
267 267 265 259 291 306 264 263 249 246 233 236 238 237 234 227 219 215 224 228 229 229 227 224 223 222 223 224 224 224 229 232 232 235 241 250 274 281 284 293 289 285 286 289 290 289 289 294 296
248 188 265 289 230 240 64 284 233 223 229 226 227 231 235 233 236 243 246 240 234 233 232 230 227 226 223 222 226 227 230 232 238 242 251 253 258 267 272 276 279 281 283 285 288 288 289 287 294
228 34 319 275 261 279 248 277 271 180 231 234 223 224 231 236 237 241 239 236 233 229 231 232 231 228 225 224 227 232 234 235 235 243 253 258 262 268 269 267 270 277 280 283 282 288 291 287 287
336 337 338 297 296 241 227 212 207 209 229 220 230 226 226 233 233 233 225 219 217 223 227 228 227 228 223 223 226 228 231 235 238 245 252 257 259 262 263 265 271 274 281 285 286 285 281 285 285
225 129 260 203 211 238 168 201 239 252 339 196 252 239 226 228 228 223 215 210 212 217 222 220 219 219 218 221 225 223 224 230 238 241 245 246 250 253 263 268 271 275 282 286 288 288 289 288 287
191 196 185 194 205 263 131 226 257 243 272 253 242 262 241 229 226 225 218 214 216 219 220 218 215 212 211 212 221 218 223 227 233 238 246 255 262 265 272 277 278 279 280 281 282 283 285 284 283
224 218 249 318 250 257 239 266 294 5 312 338 275 266 238 232 232 228 222 220 218 214 212 212 211 208 205 203 203 210 185 136 22 267 280 292 282 279 275 275 279 287 284 285 288 287 288 289 290
220 176 210 212 232 240 241 248 233 244 242 262 250 210 224 221 212 203 198 199 199 197 195 195 194 186 178 165 154 152 133 191 271 275 279 281 281 279 282 286 293 293 300 308 310 314 311 309 310
190 229 239 286 243 264 299 250 275 254 265 235 258 207 205 197 196 189 187 185 189 184 179 180 181 169 166 181 195 217 240 223 194 225 241 241 243 251 265 287 309 325 327 325 325 321 319 317 312
254 216 211 224 239 244 246 258 141 316 296 285 250 172 182 189 182 178 172 169 170 169 166 164 163 164 162 162 162 162 169 189 203 199 209 210 201 222 351 338 331 334 335 329 324 321 318 317 315
Wind_Speed_850mb
5 5 4 2 6 6 3 6 3 5 3 2 20 10 8 8 6 2 12 29 47 47 47 46 39 36 35 38 38 39 37 37 35 34 31 27 20 13 6 6 7 20 24 24 26 30 31 30 29
6 3 6 6 7 2 6 4 6 7 3 22 20 18 7 4 6 9 30 31 46 46 49 46 40 37 35 39 40 38 35 31 31 29 24 20 15 8 3 7 10 23 22 23 24 28 29 28 28
5 1 4 7 5 6 5 5 6 7 23 5 6 7 9 7 7 22 20 42 47 47 47 45 40 35 34 36 37 35 31 27 25 23 21 17 13 8 6 12 25 14 21 22 21 22 24 25 25
2 1 9 6 7 8 5 7 7 4 11 3 7 10 10 5 12 19 28 47 45 46 45 44 38 34 34 34 31 32 29 25 23 23 22 20 16 14 14 30 24 18 21 20 18 17 16 19 20
1 3 6 4 7 7 7 10 8 4 6 7 8 6 9 13 16 19 36 45 46 45 46 44 39 33 34 33 29 27 22 20 19 18 20 21 18 16 23 23 20 19 20 18 15 13 12 12 13
3 6 5 6 8 7 11 6 6 6 8 13 10 14 9 14 19 35 42 43 44 43 46 43 39 33 35 33 27 25 19 18 16 15 17 23 20 21 23 18 16 15 15 14 12 9 8 7 8
10 7 7 7 5 7 8 7 4 4 9 9 13 11 10 22 28 37 45 43 44 44 45 42 39 36 35 33 27 23 17 14 12 13 13 17 17 21 17 16 18 17 15 11 9 6 3 4 6
12 9 10 8 7 9 5 3 3 8 6 11 17 8 9 35 39 44 46 46 46 47 44 45 43 41 40 35 28 23 16 11 9 11 14 15 14 14 16 15 16 15 12 8 6 3 1 2 4
15 7 8 11 13 10 5 1 1 3 6 11 16 6 8 40 47 51 52 51 52 51 50 47 45 43 40 36 30 25 19 12 7 10 13 16 16 13 14 14 12 11 9 6 3 3 3 4 6
10 10 19 14 11 7 4 3 4 2 5 10 11 12 11 45 52 59 61 63 61 57 55 51 48 46 42 38 33 29 23 17 10 10 11 16 15 14 14 13 10 6 6 6 5 4 4 5 7
10 12 12 13 18 14 6 5 4 5 5 14 16 21 24 49 54 57 59 59 63 58 54 54 50 47 45 41 37 32 27 20 15 13 13 13 15 14 13 12 10 10 8 7 6 5 6 7 9
6 16 16 15 22 11 7 6 5 11 4 7 10 17 33 51 57 59 58 59 60 60 56 52 50 50 46 42 39 34 29 22 18 12 13 13 11 10 11 11 12 11 11 11 10 10 11 12 14
7 6 20 18 26 31 15 16 10 15 10 14 15 24 33 48 56 57 54 52 54 58 57 53 50 49 47 44 41 37 31 25 20 19 16 16 15 13 13 12 13 12 13 13 13 13 14 15 17
15 16 14 14 25 14 12 12 12 9 16 21 20 27 35 45 54 58 58 55 53 49 55 54 53 48 46 44 41 37 33 26 25 23 18 17 17 17 17 16 17 16 16 16 17 17 18 17 20
12 11 8 16 12 9 17 16 13 46 32 19 16 22 36 47 52 56 54 56 53 49 46 54 52 51 48 45 39 38 35 32 30 27 25 23 21 20 20 19 19 17 18 18 20 20 20 21 23
5 2 8 5 22 11 26 32 29 65 41 48 44 26 33 46 53 52 54 55 52 50 49 47 50 50 48 46 42 37 36 34 32 30 28 26 25 23 23 23 18 18 20 21 21 21 24 25 26
6 6 11 13 18 10 21 9 29 44 53 56 57 47 40 43 51 55 53 53 54 48 45 49 49 47 44 47 44 38 36 35 32 29 27 26 26 24 24 23 19 19 21 22 24 24 28 30 32
6 8 6 7 4 9 18 22 19 18 48 65 69 68 56 52 53 57 56 53 51 53 48 47 49 46 41 41 43 42 40 38 36 32 28 25 24 23 24 23 22 24 27 27 28 31 30 34 38
8 6 10 8 23 12 18 32 34 41 29 43 56 66 67 63 54 52 54 55 53 53 55 53 55 53 49 48 48 47 45 39 37 35 28 28 25 26 29 29 29 28 30 30 30 34 36 36 34
14 21 19 12 17 5 18 29 24 36 33 50 62 70 70 67 64 56 52 57 59 58 58 59 59 58 55 51 45 45 39 37 33 28 31 31 31 31 30 32 34 33 31 31 30 32 38 42 37
17 16 13 18 20 13 13 35 33 19 44 54 68 72 73 75 66 56 50 51 63 64 61 61 63 63 60 53 48 45 43 42 38 35 33 30 24 20 20 21 24 25 29 31 30 33 37 43 44
12 8 4 16 9 14 5 17 22 44 41 34 57 63 79 79 77 74 69 65 66 67 65 60 60 66 64 58 56 54 49 41 39 33 30 29 32 32 32 33 34 34 34 37 36 37 37 39 45
7 4 6 13 15 8 29 13 9 20 34 41 47 59 81 89 89 79 75 72 74 76 73 66 63 63 64 61 59 57 51 46 41 37 34 32 31 31 32 35 33 36 38 39 37 36 35 37 40
7 4 8 3 8 16 28 21 12 12 19 16 43 62 75 87 84 75 65 61 58 63 72 73 69 60 62 61 58 55 54 51 46 39 36 34 31 29 29 29 33 35 40 41 43 43 45 41 37
10 8 3 7 11 28 21 22 45 3 4 9 16 42 68 85 88 81 72 64 53 47 57 66 67 60 58 62 63 60 56 51 44 43 40 37 33 31 31 32 29 27 34 37 39 41 41 42 45
17 16 8 15 10 11 15 23 15 11 35 51 20 16 40 61 72 87 79 65 53 42 37 52 61 62 60 61 59 50 45 42 45 37 30 24 24 24 25 29 30 32 37 40 41 41 43 45 41
8 16 16 13 11 7 9 21 18 2 8 6 3 4 21 31 52 65 71 69 61 53 47 47 55 61 57 52 43 39 25 9 2 7 12 16 19 23 24 26 29 32 38 39 40 41 42 42 43
12 1 7 8 10 10 9 19 19 3 13 8 12 14 12 23 31 46 59 63 60 55 52 49 53 54 46 43 44 19 18 9 14 30 37 44 39 28 19 18 22 21 21 23 23 23 23 24 27
9 8 9 6 15 6 5 10 5 12 10 17 14 16 22 27 35 42 47 49 51 52 50 53 55 62 61 47 39 33 22 20 25 28 36 30 24 17 13 11 12 10 15 17 22 24 25 27 29
11 17 19 13 15 10 25 24 4 6 13 16 0 6 16 28 40 44 45 47 47 50 52 53 54 53 46 43 39 39 41 34 31 30 28 20 11 4 2 6 10 15 18 20 21 24 27 29 30
Wind_Direction_850mb
41 97 137 110 61 58 255 256 279 305 279 185 135 146 167 111 161 200 165 157 163 165 165 164 164 163 158 150 147 141 145 145 150 143 149 140 147 138 132 79 53 109 111 109 103 92 89 86 87
41 97 121 97 88 70 264 242 234 242 173 133 113 119 110 130 139 148 147 157 163 165 166 164 164 167 163 159 159 154 158 158 165 169 166 166 167 169 143 89 113 112 111 106 96 92 89 83 84
20 87 124 95 114 192 219 211 274 273 158 150 122 97 116 129 157 147 151 158 163 168 167 165 164 166 163 162 165 167 167 166 169 174 189 200 197 194 172 95 103 101 114 103 94 88 87 85 80
345 84 69 99 210 253 211 287 330 129 190 48 123 84 108 143 137 145 156 160 163 169 166 167 166 167 165 160 161 163 173 180 189 197 204 211 219 208 183 126 133 119 119 110 103 97 84 77 76
255 91 71 99 247 264 263 278 335 190 180 147 145 171 118 131 149 152 156 160 164 168 166 169 170 171 169 165 161 163 166 172 183 190 194 189 200 163 149 139 135 116 122 116 110 104 96 79 71
134 96 88 215 241 262 276 263 281 231 185 155 139 141 149 152 152 153 158 160 167 169 167 170 174 174 169 168 165 161 153 148 150 161 172 180 187 158 153 155 149 126 126 124 120 108 91 77 61
145 103 206 191 244 289 232 286 216 255 210 196 161 132 173 163 155 159 161 163 169 173 170 169 179 177 174 173 170 165 154 142 129 148 159 164 169 150 147 147 151 145 147 144 141 134 102 61 29
178 111 144 226 193 253 241 315 309 185 186 161 170 179 189 177 161 164 168 169 172 175 178 175 181 181 180 180 179 177 172 166 148 156 163 173 169 165 162 155 152 152 158 166 169 167 229 338 336
170 96 189 213 167 232 208 68 72 205 165 183 189 173 182 175 165 168 172 178 177 180 183 181 183 185 187 187 185 187 188 188 177 164 175 175 173 179 174 169 172 172 173 183 208 239 272 297 307
172 166 205 195 195 227 208 177 322 171 174 208 204 208 188 176 176 177 180 182 184 183 185 188 188 188 192 194 195 197 199 200 192 179 173 175 180 181 183 180 176 188 196 195 211 235 272 298 311
190 204 193 207 211 234 229 237 210 165 225 210 208 216 187 183 187 190 190 189 188 187 189 191 193 193 197 201 202 205 209 209 203 191 178 179 189 187 181 184 188 194 195 204 221 247 273 291 294
202 246 204 196 200 186 211 197 206 214 239 174 238 230 208 194 198 200 200 196 191 193 193 194 196 200 203 207 212 213 215 217 218 208 202 206 204 198 201 201 208 214 223 231 244 258 268 274 278
199 248 230 227 208 209 219 229 231 241 235 260 281 226 215 209 206 206 209 205 201 198 197 196 198 204 207 211 216 219 220 222 221 221 219 223 230 229 229 227 230 233 241 253 265 274 280 283 289
322 290 259 240 232 226 199 239 192 236 244 255 254 236 217 216 214 211 209 211 212 210 205 201 201 204 210 213 216 220 222 225 229 229 230 235 240 245 250 253 255 253 261 271 275 277 283 293 299
309 317 326 220 211 225 208 264 213 240 245 252 248 240 226 215 218 222 219 215 216 216 219 210 207 207 210 217 219 224 228 229 230 235 240 245 248 254 259 257 258 263 266 267 276 286 288 292 296
284 146 241 227 160 217 176 250 220 239 228 236 245 243 237 225 222 224 224 222 220 219 221 213 212 213 214 215 219 224 231 235 239 241 245 251 257 259 263 265 263 261 264 269 277 286 292 297 299
278 224 228 313 206 176 197 240 228 233 222 229 236 238 239 238 231 226 225 224 224 225 225 219 213 215 217 220 221 224 231 237 240 242 245 250 256 258 260 262 259 261 267 272 279 286 293 297 301
254 234 260 230 336 240 231 243 270 240 217 225 230 233 234 235 237 229 222 223 224 228 224 224 221 218 218 221 223 224 227 230 230 233 239 247 253 255 261 264 268 270 274 278 285 291 291 298 305
261 274 294 311 305 303 247 243 249 251 245 231 234 231 226 228 239 237 229 227 224 224 226 220 222 221 216 216 217 223 227 229 231 235 239 243 252 257 259 265 269 269 273 281 283 289 295 297 304
278 268 271 283 264 309 295 265 254 247 235 230 232 232 229 227 229 232 228 227 228 226 224 222 221 223 223 221 222 228 232 235 241 244 245 248 253 256 264 265 266 270 275 278 283 288 294 295 303
267 267 265 259 291 306 264 263 249 246 233 236 238 237 234 227 219 215 224 228 229 229 227 224 223 222 223 224 224 224 229 232 232 235 241 250 274 281 284 293 289 285 286 289 290 289 289 294 296
248 188 265 289 230 240 64 284 233 223 229 226 227 231 235 233 236 243 246 240 234 233 232 230 227 226 223 222 226 227 230 232 238 242 251 253 258 267 272 276 279 281 283 285 288 288 289 287 294
228 34 319 275 261 279 248 277 271 180 231 234 223 224 231 236 237 241 239 236 233 229 231 232 231 228 225 224 227 232 234 235 235 243 253 258 262 268 269 267 270 277 280 283 282 288 291 287 287
336 337 338 297 296 241 227 212 207 209 229 220 230 226 226 233 233 233 225 219 217 223 227 228 227 228 223 223 226 228 231 235 238 245 252 257 259 262 263 265 271 274 281 285 286 285 281 285 285
225 129 260 203 211 238 168 201 239 252 339 196 252 239 226 228 228 223 215 210 212 217 222 220 219 219 218 221 225 223 224 230 238 241 245 246 250 253 263 268 271 275 282 286 288 288 289 288 287
191 196 185 194 205 263 131 226 257 243 272 253 242 262 241 229 226 225 218 214 216 219 220 218 215 212 211 212 221 218 223 227 233 238 246 255 262 265 272 277 278 279 280 281 282 283 285 284 283
224 218 249 318 250 257 239 266 294 5 312 338 275 266 238 232 232 228 222 220 218 214 212 212 211 208 205 203 203 210 185 136 22 267 280 292 282 279 275 275 279 287 284 285 288 287 288 289 290
220 176 210 212 232 240 241 248 233 244 242 262 250 210 224 221 212 203 198 199 199 197 195 195 194 186 178 165 154 152 133 191 271 275 279 281 281 279 282 286 293 293 300 308 310 314 311 309 310
190 229 239 286 243 264 299 250 275 254 265 235 258 207 205 197 196 189 187 185 189 184 179 180 181 169 166 181 195 217 240 223 194 225 241 241 243 251 265 287 309 325 327 325 325 321 319 317 312
254 216 211 224 239 244 246 258 141 316 296 285 250 172 182 189 182 178 172 169 170 169 166 164 163 164 162 162 162 162 169 189 203 199 209 210 201 222 351 338 331 334 335 329 324 321 318 317 315